Home   Weather   Gonzales   Past weeks
Flag for USA

Past Weather in Gonzales, Louisiana, USA — Yesterday and Last 2 Weeks

Now
64 °F

Clear.


Feels Like: 64 °F
Forecast: 76 / 53 °F
Wind: No wind

Location: Baton Rouge Metropolitan - Ryan Field

Current Time: Oct 22, 2019 at 1:54:41 am

Latest Report: Oct 22, 2019 at 12:53 am


Visibility: 10 mi

Pressure: 29.98 "Hg

Humidity: 94%

Dew Point: 62 °F

Location of GonzalesLocation

Past Weather in Gonzales — Graph

°F

Gonzales Temperature Yesterday

Maximum temperature yesterday: 76 °F (at 7:53 am)
Minimum temperature yesterday: 65 °F (at 11:53 pm)
Average temperature yesterday: 74 °F

High & Low Weather Summary for the Past Weeks

 TemperatureHumidityPressure
High88 °F (Oct 11, 1:53 pm)97% (Oct 15, 1:53 am)30.14 "Hg (Oct 15, 1:53 am)
Low52 °F (Oct 17, 5:53 am)43% (Oct 9, 2:53 pm)29.73 "Hg (Oct 19, 4:53 pm)
Average71 °F79%29.95 "Hg
* Reported Oct 7 12:53 am — Oct 22 12:53 am, Gonzales. Weather by CustomWeather, © 2019

Note: Actual official high and low records may vary slightly from our data, if they occured in-between our weather recording intervals... More about our weather records

Advertising

Gonzales Weather History for the Previous 24 Hours

Scroll right to see more
 ConditionsComfort  
Time TempWeatherWind HumidityBarometerVisibility
12:53 am
Tue, Oct 22
64 °FClear.No wind94%29.98 "Hg10 mi
11:53 pm
Mon, Oct 21
65 °FClear.5 mph94%29.97 "Hg10 mi
10:53 pm67 °FMostly cloudy.3 mph90%29.96 "Hg10 mi
9:53 pm68 °FLow clouds.7 mph90%29.93 "Hg10 mi
8:53 pm69 °FMostly cloudy.7 mph93%29.91 "Hg10 mi
7:53 pm71 °FMostly cloudy.12 mph90%29.87 "Hg10 mi
6:53 pm72 °FLow clouds.3 mph93%29.83 "Hg10 mi
5:53 pm74 °FLow clouds.7 mph91%29.79 "Hg10 mi
4:53 pm74 °FLow clouds.6 mph91%29.80 "Hg10 mi
4:23 pm74 °FLow clouds.8 mph91%29.79 "Hg10 mi
4:00 pm74 °FMostly cloudy.8 mph91%29.79 "Hg10 mi
3:00 pm74 °FLight rain. More clouds than sun.6 mph91%29.80 "Hg7 mi
1:53 pm74 °FLight rain. Fog.8 mph91%29.79 "Hg5 mi
1:08 pm73 °FRain. Fog.9 mph94%29.84 "Hg5 mi
12:53 pm74 °FHeavy rain. Fog.13 mph94%29.84 "Hg5 mi
12:26 pm75 °FStrong thunderstorms. Fog.7 mph94%29.84 "Hg2 mi
11:59 am75 °FHeavy rain. Fog.3 mph94%29.84 "Hg3 mi
11:18 am75 °FHeavy rain. Fog.5 mph94%29.85 "Hg2 mi
11:02 am75 °FRain. Fog.5 mph94%29.86 "Hg2 mi
10:37 am75 °FRain. Fog.6 mph94%29.84 "Hg2 mi
10:10 am76 °FThundershowers. Passing clouds.10 mph91%29.83 "Hg7 mi
9:53 am76 °FLight rain. Sunny.12 mph91%29.82 "Hg7 mi
8:53 am76 °FLight rain. Sunny.14 mph91%29.82 "Hg8 mi
7:53 am76 °FLight rain. Passing clouds.16 mph88%29.82 "Hg10 mi
6:53 am75 °FLight rain. Passing clouds.10 mph90%29.83 "Hg10 mi
5:53 am74 °FClear.8 mph91%29.80 "Hg10 mi
4:53 am75 °FClear.10 mph88%29.78 "Hg10 mi
3:53 am75 °FClear.8 mph88%29.80 "Hg10 mi
2:53 am75 °FClear.12 mph88%29.80 "Hg9 mi
1:53 am75 °FClear.8 mph88%29.83 "Hg7 mi
1:02 am75 °FFog.6 mph90%29.85 "Hg6 mi
Weather by CustomWeather, © 2019

See weather overview